Location: Esp�n
(42.4593°N, 0.2047°W)
Time: 13:02:47
(UTC+00:00)

Cosmos 1937 Rocket - Pass Details

Date: 07 June 2020
Orbit: 746 x 781 km, 74.0° (Epoch: 11 July)

Event Time Altitude Azimuth Distance (km) Brightness Sun altitude
Rises 00:59:22 0° 334° (NNW) 3,248 7.5 -23.3°
Reaches altitude 10° 01:01:49 10° 329° (NNW) 2,323 6.5 -23.2°
Maximum altitude 01:06:51 48° 256° (WSW) 1,013 3.9 -22.9°
Enters shadow 01:07:12 47° 244° (WSW) 1,024 3.8 -22.9°
